Home   Weather   Norderstedt   Past weeks

Flag for Germany Past Weather in Norderstedt, Schleswig-Holstein, Germany — Yesterday and Last 2 Weeks

43 °F


Feels Like: 39 °F
Forecast: 42 / 51 °F
Wind: 7 mph from East

Location: Hamburg-Fuhlsbuettel

Current Time: Oct 24, 2016 at 12:37:51 PM

Latest Report: Oct 24, 2016 at 11:50 AM

Visibility: 3 mi

Pressure: 30.07 "Hg

Humidity: 100%

Dew Point: 43 °F

Location of NorderstedtLocation

Past Weather in Norderstedt — Graph


Norderstedt Temperature Yesterday

Maximum temperature yesterday: 52 °F (at 2:20 PM)
Minimum temperature yesterday: 45 °F (at 12:20 AM)
Average temperature yesterday: 46 °F

High & Low Weather Summary for the Past Weeks

High61 °F (Oct 18, 2:20 PM)100% (Oct 9, 6:50 PM)30.27 "Hg (Oct 9, 6:50 PM)
Low36 °F (Oct 10, 1:50 AM)62% (Oct 23, 2:50 PM)29.80 "Hg (Oct 15, 5:50 AM)
Average48 °F90%30.06 "Hg
* Reported Oct 9 11:20 AM — Oct 24 11:20 AM, Norderstedt, Weather by CustomWeather, © 2016

Note: Actual official high and low records may vary slightly from our data, if they occured in-between our weather recording intervals... More about our weather records


Norderstedt Weather History for the Previous 24 Hours

Scroll right to see more
Time TempWeatherWind HumidityBarometerVisibility
11:20 AM
Mon, Oct 24
43 °FFog.6 mph100%30.07 "Hg2 mi
10:50 AM43 °FFog.6 mph100%30.07 "Hg1 mi
10:20 AM41 °FFog.6 mph100%30.07 "Hg1 mi
9:50 AM41 °FFog.7 mph100%30.07 "Hg1 mi
9:20 AM41 °FFog.6 mph100%30.07 "Hg1 mi
8:50 AM41 °FFog.7 mph100%30.04 "Hg1 mi
8:20 AM41 °FFog.6 mph100%30.04 "Hg1 mi
7:50 AM41 °FFog.6 mph100%30.04 "Hg1 mi
7:20 AM41 °FFog.6 mph100%30.04 "Hg1 mi
6:50 AM41 °FFog.6 mph100%30.04 "Hg1 mi
6:20 AM41 °FFog.6 mph100%30.04 "Hg1 mi
5:50 AM39 °FFog.7 mph100%30.01 "Hg1 mi
5:20 AM39 °FFog.5 mph100%30.01 "Hg1 mi
4:50 AM39 °FFog.6 mph100%30.04 "Hg2 mi
4:20 AM37 °FPassing clouds.3 mph100%30.01 "Hg4 mi
3:50 AM37 °FPassing clouds.6 mph100%30.01 "Hg4 mi
3:20 AM39 °FPassing clouds.6 mph93%30.01 "Hg4 mi
2:50 AM39 °FClear.6 mph100%30.01 "Hg6 mi
2:20 AM41 °FClear.5 mph93%30.01 "Hg6 mi
1:50 AM41 °FClear.6 mph93%30.01 "Hg10 mi
1:20 AM41 °FClear.5 mph100%30.01 "Hg10 mi
12:50 AM43 °FPassing clouds.3 mph93%30.01 "HgN/A
12:20 AM43 °FClear.3 mph93%30.01 "Hg10 mi
11:50 PM
Sun, Oct 23
45 °FClear.5 mph87%30.01 "Hg10 mi
11:20 PM45 °FClear.6 mph87%30.01 "Hg10 mi
10:50 PM45 °FClear.5 mph87%30.01 "Hg10 mi
10:20 PM45 °FPassing clouds.5 mph87%30.01 "HgN/A
9:50 PM46 °FClear.7 mph87%30.01 "Hg10 mi
9:20 PM46 °FClear.10 mph87%30.01 "Hg10 mi
8:50 PM46 °FPassing clouds.10 mph87%30.01 "HgN/A
8:20 PM46 °FPassing clouds.8 mph87%30.01 "HgN/A
7:50 PM46 °FClear.8 mph87%30.01 "Hg10 mi
7:20 PM46 °FPassing clouds.8 mph87%30.01 "HgN/A
6:50 PM46 °FClear.8 mph87%30.01 "Hg10 mi
6:20 PM48 °FPassing clouds.8 mph82%29.98 "HgN/A
5:50 PM48 °FPartly sunny.9 mph82%29.98 "HgN/A
5:20 PM48 °FScattered clouds.9 mph76%29.98 "HgN/A
4:50 PM48 °FScattered clouds.12 mph76%29.98 "HgN/A
4:20 PM48 °FPartly sunny.12 mph82%29.98 "HgN/A
3:50 PM50 °FBroken clouds.10 mph76%29.98 "HgN/A
3:20 PM50 °FScattered clouds.8 mph67%29.98 "HgN/A
2:50 PM52 °FScattered clouds.9 mph62%29.98 "HgN/A
2:20 PM52 °FScattered clouds.7 mph67%29.98 "HgN/A
1:50 PM50 °FScattered clouds.7 mph71%29.98 "HgN/A
1:20 PM50 °FBroken clouds.6 mph76%29.98 "HgN/A
12:50 PM48 °FBroken clouds.7 mph82%29.98 "HgN/A
12:20 PM48 °FPartly sunny.7 mph82%29.98 "HgN/A
Weather by CustomWeather, © 2016

See weather overviewHow to use our weather pages